Location: Bagong Pook
(14.2541°N, 120.8791°E)
Time: 04:07:06
(UTC+00:00)

Cosmos 1833 Rocket - Pass Details

Date: 13 January 2026
Orbit: 831 x 839 km, 71.0° (Epoch: 11 February)

Event Time Altitude Azimuth Distance (km) Brightness Sun altitude
Rises 10:07:24 0° 175° (S) 3,372 6.0 -5.7°
Reaches altitude 10° 10:10:04 10° 165° (SSE) 2,440 5.2 -6.3°
Maximum altitude 10:14:59 32° 103° (ESE) 1,408 3.5 -7.4°
Drops below altitude 10° 10:19:53 10° 42° (NE) 2,445 4.6 -8.5°
Enters shadow 10:21:05 - 37° (NE) 2,859 4.9 -8.8°
